Location: Davidschlag
(48.4333°N, 14.2833°E)
Time: 19:41:56
(UTC+00:00)

Cosmos 1869 Rocket - Pass Details

Date: 27 February 2020
Orbit: 605 x 633 km, 82.5° (Epoch: 03 April)

Event Time Altitude Azimuth Distance (km) Brightness Sun altitude
Rises 17:30:49 0° 159° (SSE) 2,887 6.8 -8.7°
Reaches altitude 10° 17:33:16 10° 148° (SSE) 1,981 5.9 -9.2°
Maximum altitude 17:37:00 28° 89° (E) 1,162 4.4 -9.8°
Drops below altitude 10° 17:40:45 10° 31° (NNE) 1,980 5.8 -10.4°
Sets 17:43:11 0° 20° (NNE) 2,886 6.8 -10.8°
